Location: Bli��� Lhota
(48.7570°N, 14.0120°E)
Time: 08:17:05
(UTC+00:00)

Cosmos 2266 Rocket - Pass Details

Date: 18 September 2020
Orbit: 934 x 1008 km, 82.9° (Epoch: 24 October)

Event Time Altitude Azimuth Distance (km) Brightness Sun altitude
Rises 20:58:17 0° 348° (NNW) 3,617 7.8 -33.6°
Reaches altitude 10° 21:00:47 10° 347° (NNW) 2,663 7.0 -33.8°
Enters shadow 21:05:33 54° 322° (NW) 1,127 4.5 -34.3°
